• In Hungary
  • List of Countries
  • For 7 days
  • Water Temperature
  • Satellite Maps
  • Weather Map
  • News
  • Weather Widgets
  • user-avatar
    Login

    Hourly Weather Palencia

    Today, 14 November, Wednesday

    Time Temperature Precipitation Wind Pressure Humidity
    00:00 +10°C° 0 mm 1 mps 697 mmHg 84%
    01:00 +9°C° 0 mm 2 mps 696 mmHg 85%
    02:00 +8°C° 0 mm 2 mps 696 mmHg 85%
    03:00 +8°C° 0 mm 2 mps 696 mmHg 85%
    04:00 +8°C° 0 mm 2 mps 695 mmHg 86%
    05:00 +8°C° 0 mm 2 mps 695 mmHg 86%
    06:00 +8°C° 0 mm 2 mps 695 mmHg 87%
    07:00 +8°C° 0 mm 2 mps 695 mmHg 84%
    08:00 +9°C° 0 mm 2 mps 695 mmHg 80%
    09:00 +10°C° 0 mm 2 mps 695 mmHg 77%
    10:00 +13°C° 0 mm 2 mps 695 mmHg 71%
    11:00 +14°C° 0 mm 2 mps 695 mmHg 64%
    12:00 +16°C° 0 mm 2 mps 695 mmHg 58%
    13:00 +16°C° 0 mm 2 mps 695 mmHg 56%
    14:00 +17°C° 0 mm 2 mps 694 mmHg 54%
    15:00 +17°C° 0 mm 3 mps 694 mmHg 52%
    16:00 +16°C° 0 mm 3 mps 694 mmHg 57%
    17:00 +15°C° 0 mm 2 mps 693 mmHg 62%
    18:00 +14°C° 0 mm 2 mps 693 mmHg 67%
    19:00 +12°C° 0 mm 3 mps 693 mmHg 70%
    20:00 +11°C° 0 mm 3 mps 693 mmHg 74%
    21:00 +11°C° 0 mm 3 mps 692 mmHg 77%
    22:00 +11°C° 0 mm 3 mps 692 mmHg 80%
    23:00 +10°C° 0 mm 3 mps 692 mmHg 83%

    Tomorrow, 15 November, Thursday

    Time Temperature Precipitation Wind Pressure Humidity
    00:00 +10°C° 0 mm 3 mps 692 mmHg 86%
    01:00 +10°C° 0 mm 3 mps 692 mmHg 87%
    02:00 +9°C° 0 mm 3 mps 692 mmHg 88%
    03:00 +9°C° 0 mm 3 mps 691 mmHg 89%
    04:00 +9°C° 0 mm 3 mps 691 mmHg 90%
    05:00 +9°C° 0 mm 3 mps 691 mmHg 90%
    06:00 +8°C° 0 mm 3 mps 691 mmHg 90%
    07:00 +9°C° 0 mm 3 mps 692 mmHg 86%
    08:00 +10°C° 0 mm 3 mps 692 mmHg 83%
    09:00 +11°C° 0 mm 3 mps 692 mmHg 79%
    10:00 +12°C° 0 mm 3 mps 693 mmHg 73%
    11:00 +14°C° 0 mm 3 mps 693 mmHg 66%
    12:00 +16°C° 0 mm 3 mps 693 mmHg 60%
    13:00 +16°C° 0 mm 3 mps 693 mmHg 59%
    14:00 +16°C° 0 mm 3 mps 693 mmHg 58%
    15:00 +17°C° 0 mm 3 mps 693 mmHg 57%
    16:00 +16°C° 0 mm 2 mps 693 mmHg 61%
    17:00 +14°C° 0 mm 2 mps 693 mmHg 66%
    18:00 +13°C° 0 mm 2 mps 693 mmHg 70%
    19:00 +13°C° 0 mm 2 mps 693 mmHg 73%
    20:00 +12°C° 0 mm 2 mps 693 mmHg 75%
    21:00 +11°C° 0 mm 3 mps 693 mmHg 78%
    22:00 +10°C° 0 mm 3 mps 693 mmHg 80%
    23:00 +10°C° 0 mm 3 mps 693 mmHg 83%

    Day after tomorrow, 16 November, Friday

    Time Temperature Precipitation Wind Pressure Humidity
    00:00 +10°C° 0 mm 3 mps 693 mmHg 86%
    01:00 +9°C° 0 mm 2 mps 693 mmHg 87%
    02:00 +9°C° 0 mm 2 mps 693 mmHg 89%
    03:00 +9°C° 0 mm 2 mps 693 mmHg 90%
    04:00 +9°C° 0 mm 2 mps 693 mmHg 90%
    05:00 +8°C° 0 mm 2 mps 693 mmHg 90%
    06:00 +8°C° 0 mm 2 mps 693 mmHg 91%
    07:00 +9°C° 0 mm 2 mps 693 mmHg 87%
    08:00 +10°C° 0 mm 3 mps 693 mmHg 84%
    09:00 +11°C° 0 mm 3 mps 694 mmHg 80%
    10:00 +12°C° 0 mm 3 mps 694 mmHg 73%
    11:00 +14°C° 0 mm 3 mps 694 mmHg 66%
    12:00 +16°C° 0 mm 3 mps 694 mmHg 58%
    13:00 +17°C° 0 mm 3 mps 693 mmHg 56%
    14:00 +17°C° 0 mm 3 mps 693 mmHg 55%
    15:00 +17°C° 0 mm 3 mps 693 mmHg 53%
    16:00 +16°C° 0 mm 3 mps 693 mmHg 58%
    17:00 +15°C° 0 mm 2 mps 692 mmHg 63%
    18:00 +14°C° 0 mm 2 mps 692 mmHg 68%
    19:00 +13°C° 0 mm 2 mps 692 mmHg 71%
    20:00 +11°C° 0 mm 3 mps 692 mmHg 74%
    21:00 +11°C° 0 mm 3 mps 693 mmHg 78%
    22:00 +11°C° 0 mm 3 mps 692 mmHg 80%
    23:00 +10°C° 0 mm 3 mps 692 mmHg 83%

    17 November, Saturday

    Time Temperature Precipitation Wind Pressure Humidity
    00:00 +10°C° 0 mm 3 mps 692 mmHg 85%
    01:00 +9°C° 0 mm 3 mps 692 mmHg 86%
    02:00 +9°C° 0 mm 3 mps 692 mmHg 87%
    03:00 +9°C° 0 mm 3 mps 692 mmHg 88%
    04:00 +9°C° 0 mm 3 mps 692 mmHg 89%
    05:00 +8°C° 0 mm 3 mps 691 mmHg 89%
    06:00 +8°C° 0 mm 3 mps 691 mmHg 89%
    07:00 +9°C° 0 mm 3 mps 691 mmHg 85%
    08:00 +10°C° 0 mm 4 mps 692 mmHg 82%
    09:00 +10°C° 0 mm 4 mps 692 mmHg 78%
    10:00 +12°C° 0 mm 4 mps 692 mmHg 71%
    11:00 +13°C° 0 mm 4 mps 692 mmHg 64%
    12:00 +15°C° 0 mm 4 mps 692 mmHg 57%
    13:00 +15°C° 0 mm 4 mps 691 mmHg 55%
    14:00 +15°C° 0 mm 4 mps 691 mmHg 54%
    15:00 +17°C° 0 mm 4 mps 690 mmHg 52%
    16:00 +14°C° 0 mm 3 mps 690 mmHg 57%
    17:00 +13°C° 0 mm 3 mps 690 mmHg 62%
    18:00 +12°C° 0 mm 3 mps 690 mmHg 67%
    19:00 +11°C° 0 mm 3 mps 690 mmHg 69%
    20:00 +11°C° 0 mm 3 mps 690 mmHg 72%
    21:00 +10°C° 0 mm 3 mps 690 mmHg 74%
    22:00 +10°C° 0 mm 3 mps 689 mmHg 76%
    23:00 +9°C° 0 mm 3 mps 689 mmHg 78%

    18 November, Sunday

    Time Temperature Precipitation Wind Pressure Humidity
    00:00 +9°C° 0 mm 3 mps 689 mmHg 81%
    01:00 +8°C° 0 mm 3 mps 688 mmHg 83%
    02:00 +8°C° 0 mm 3 mps 688 mmHg 85%
    03:00 +8°C° 0 mm 3 mps 688 mmHg 87%
    04:00 +7°C° 0 mm 3 mps 688 mmHg 88%
    05:00 +7°C° 0 mm 3 mps 687 mmHg 88%
    06:00 +7°C° 0 mm 3 mps 687 mmHg 89%
    07:00 +8°C° 0 mm 3 mps 687 mmHg 85%
    08:00 +8°C° 0 mm 3 mps 687 mmHg 82%
    09:00 +8°C° 0 mm 4 mps 688 mmHg 79%
    10:00 +10°C° 0 mm 4 mps 687 mmHg 72%
    11:00 +12°C° 0 mm 4 mps 687 mmHg 66%
    12:00 +13°C° 0 mm 4 mps 687 mmHg 59%
    13:00 +13°C° 0 mm 4 mps 686 mmHg 57%
    14:00 +13°C° 0 mm 3 mps 686 mmHg 55%
    15:00 +14°C° 0 mm 3 mps 686 mmHg 53%
    16:00 +13°C° 0 mm 3 mps 685 mmHg 58%
    17:00 +11°C° 0 mm 3 mps 685 mmHg 62%
    18:00 +10°C° 0 mm 2 mps 685 mmHg 67%
    19:00 +10°C° 0 mm 3 mps 685 mmHg 70%
    20:00 +9°C° 0 mm 3 mps 685 mmHg 73%
    21:00 +8°C° 0 mm 3 mps 685 mmHg 76%
    22:00 +8°C° 0 mm 3 mps 684 mmHg 77%
    23:00 +8°C° 0 mm 3 mps 684 mmHg 79%

    19 November, Monday

    Time Temperature Precipitation Wind Pressure Humidity
    00:00 +8°C° 0 mm 3 mps 684 mmHg 81%
    01:00 +8°C° 0 mm 3 mps 684 mmHg 81%
    02:00 +8°C° 0 mm 3 mps 684 mmHg 81%
    03:00 +7°C° 0 mm 4 mps 683 mmHg 81%
    04:00 +7°C° 0 mm 4 mps 683 mmHg 81%
    05:00 +7°C° 0 mm 4 mps 683 mmHg 81%
    06:00 +7°C° 0 mm 4 mps 683 mmHg 80%
    07:00 +7°C° 0 mm 4 mps 684 mmHg 79%
    08:00 +8°C° 0 mm 4 mps 684 mmHg 77%
    09:00 +8°C° 0 mm 5 mps 684 mmHg 75%
    10:00 +10°C° 0 mm 4 mps 684 mmHg 72%
    11:00 +11°C° 0 mm 4 mps 684 mmHg 69%
    12:00 +11°C° 0 mm 4 mps 684 mmHg 65%
    13:00 +11°C° 0.1 mm 3 mps 684 mmHg 66%
    14:00 +11°C° 0.1 mm 3 mps 684 mmHg 66%
    15:00 +12°C° 0.1 mm 2 mps 684 mmHg 66%
    16:00 +10°C° 0 mm 2 mps 684 mmHg 71%
    17:00 +9°C° 0 mm 2 mps 684 mmHg 76%
    18:00 +10°C° 0 mm 1 mps 684 mmHg 81%
    19:00 +9°C° 0 mm 1 mps 684 mmHg 83%
    20:00 +9°C° 0 mm 1 mps 684 mmHg 84%
    21:00 +8°C° 0 mm 1 mps 685 mmHg 86%
    22:00 +8°C° 0 mm 1 mps 685 mmHg 87%
    23:00 +8°C° 0 mm 1 mps 685 mmHg 88%
    Show more